[[{"header":{"parameterUnit":"m.s-1","parameterCategory":1,"la1":30.2991,"la2":30.254,"lo1":-89.0895,"lo2":-89.0444,"dy":0.0017,"dx":0.0017,"nx":28,"ny":28,"refTime":"2025-03-10T21:00:00:Z","depth":0,"parameterNumber":2,"parameterNumberName":"U-component_of_WINDS"},"data":[0,0,0,0,0,0,0,0,0,0,0,0,0,0,0,0,0,0,0,0,0,0,0,0,0,0,0,0,0,0,0,0,0,0,0,0,0,0,0,0,0,0,0,0,0,0,0,0,0,0,0,0,0,0,0,0,0,0,4.1889,4.1891,0,4.2047,4.2049,4.205,4.1986,4.1982,4.1978,4.1975,4.2136,4.2144,4.2152,0,0,0,0,0,0,0,0,0,0,0,0,0,4.1531,4.1538,4.1889,4.1891,4.1893,4.2046,4.2049,4.2051,4.1986,4.1982,4.1977,4.1973,4.2134,4.2143,4.2152,0,0,0,0,0,0,0,0,0,0,0,0,0,4.1688,4.154,4.1889,4.188,4.188,4.2046,4.2049,4.2051,4.1987,4.1982,4.1976,4.1971,4.2131,4.2142,4.2154,4.2338,0,0,4.2189,4.2195,0,0,0,0,0,0,0,0,4.1679,4.1701,4.1879,4.188,4.1882,4.1991,4.1982,4.2148,4.1989,4.1947,4.1975,4.1968,4.2093,4.2107,4.2149,4.2346,4.2353,4.219,4.2198,4.2203,4.2206,0,0,0,0,0,0,0,4.1668,4.1694,4.1952,4.1882,4.1883,4.1867,4.1883,4.2013,4.2049,4.195,4.1946,4.1965,4.2092,4.2138,4.2152,4.2355,4.219,4.2201,4.2208,4.2212,4.2707,4.2713,0,0,0,0,0,0,4.1657,4.1685,4.1947,4.1956,4.1764,4.1878,4.1896,4.1961,4.2048,4.2055,4.197,4.1961,4.2121,4.2139,4.2158,4.2377,4.2203,4.2213,4.222,4.2701,4.2709,4.2715,0,0,0,0,0,0,4.165,4.1681,4.194,4.182,4.1851,4.189,4.1964,4.1968,4.2013,4.2063,4.2069,4.201,4.2117,4.2141,4.2293,4.2381,4.2219,4.2229,4.2694,4.2703,4.2712,4.2818,0,0,0,0,0,0,4.164,4.1679,4.175,4.1822,4.1858,4.2074,4.197,4.1975,4.2033,4.2024,4.2102,4.2109,4.2114,4.2276,4.2305,4.2395,4.2239,4.2686,4.2698,4.2709,4.2807,4.2829,4.2849,0,0,0,0,0,4.1627,4.1774,4.1754,4.1786,4.1948,4.2079,4.21,4.2103,4.2041,4.2112,4.2143,4.2107,4.2367,4.2292,4.2324,4.2419,4.2681,4.2695,4.2708,4.2797,4.2825,4.2849,0,0,0,0,0,0,4.1713,4.1784,4.1762,4.1937,4.2002,4.2068,4.2158,4.2133,4.2217,4.2205,4.2205,4.2223,4.2379,4.2414,4.2329,4.26,4.2514,4.2535,4.2571,4.2598,4.2619,4.2607,4.2248,0,0,0,0,0,4.1752,4.1853,4.1909,4.2058,4.2092,4.212,4.2177,4.2173,4.2241,4.2269,4.2311,4.2378,4.2475,4.2539,4.2631,4.2811,4.2826,4.2892,4.2913,4.2931,4.2948,4.3043,4.3072,4.2761,4.276,4.276,0,0,4.1835,4.1886,4.195,4.2077,4.2127,4.223,4.2144,4.2258,4.2334,4.2286,4.2431,4.2464,4.2539,4.2705,4.2781,4.2739,4.3037,4.2948,4.2961,4.297,4.306,4.309,4.3116,4.277,4.2768,4.2767,0,0,4.2037,4.2087,4.2215,4.2266,4.2343,4.236,4.239,4.246,4.248,4.2625,4.259,4.2681,4.2848,4.2902,4.2951,4.317,4.3139,4.32,4.3311,4.3404,4.3428,4.345,4.3525,4.3553,4.3218,4.3218,4.3218,0,4.213,4.2285,4.2284,4.24,4.2456,4.2416,4.2544,4.2595,4.2698,4.2737,4.2689,4.2896,4.2944,4.312,4.3173,4.3215,4.3249,4.3191,4.3425,4.3446,4.3467,4.3539,4.3567,4.3225,4.3224,4.3223,4.3223,0,4.2393,4.2501,4.2595,4.2694,4.276,4.2882,4.2899,4.2966,4.2956,4.2977,4.3124,4.318,4.3281,4.3323,4.3315,4.3497,4.3469,4.3423,4.3337,4.3503,4.357,4.3598,4.3235,4.3232,4.323,4.3229,0,0,4.2656,4.275,4.2785,4.2827,4.2908,4.2991,4.311,4.3207,4.3264,4.3336,4.3434,4.3575,4.3532,4.3588,4.3585,4.3667,4.3833,4.3611,4.3612,4.3648,4.4035,4.4067,4.4099,4.3813,4.3819,4.3823,4.4027,0,4.2862,4.307,4.3072,4.3263,4.3361,4.3323,4.3426,4.3486,4.3509,4.3594,4.3619,4.3718,4.3655,4.3688,4.3767,4.3796,4.3911,4.3782,4.3903,4.3907,4.3883,4.4135,4.417,4.4361,4.4054,4.4059,4.4062,0,4.3131,4.321,4.341,4.3473,4.3514,4.3607,4.3695,4.3778,4.3844,4.3854,4.3915,4.39,4.4019,4.393,4.4093,4.4005,4.4055,4.4076,4.4084,4.4094,4.3993,4.415,4.4422,4.445,4.4104,4.4101,4.4098,0,4.3299,4.3455,4.3594,4.3633,4.3711,4.3776,4.3811,4.3872,4.3929,4.4006,4.4043,4.4133,4.4183,4.4252,4.426,4.4195,4.4423,4.4336,4.4434,4.4433,4.4483,4.4479,4.4764,4.4518,4.4518,4.4517,4.4517,0,4.3529,4.3652,4.367,4.3756,4.3892,4.3892,4.4027,4.4057,4.4111,4.42,4.4174,4.4258,4.4265,4.4351,4.4359,4.4491,4.4514,4.4524,4.4524,4.4526,4.4524,4.4557,4.4543,4.4525,4.4523,4.4522,4.452,0,4.3739,4.3757,4.3905,4.3965,4.3983,4.4081,4.4132,4.4213,4.4232,4.4345,4.4372,4.4402,4.4502,4.4517,4.4636,4.464,4.4798,4.4785,4.4775,4.4773,4.4869,4.4858,4.5184,4.5225,4.4954,4.4957,4.4959,0,4.3883,4.3977,4.4047,4.4104,4.4143,4.4236,4.4294,4.4297,4.4358,4.4439,4.4509,4.4607,4.4684,4.4846,4.4878,4.4967,4.4955,4.5063,4.4968,4.4965,4.4953,4.4947,4.4955,4.508,4.5083,4.5086,4.5088,0,4.4137,4.414,4.4224,4.4311,4.4381,4.4449,4.4514,4.4563,4.4574,4.4644,4.4745,4.4805,4.4924,4.502,4.5108,4.5143,4.5117,4.5117,4.5144,4.5145,4.5134,4.5139,4.4822,4.511,4.5107,4.5106,4.5105,4.5104,4.4317,4.4397,4.4458,4.4552,4.46,4.4661,4.4738,4.4766,4.4851,4.4947,4.4944,4.5054,4.5115,4.523,4.5271,4.5357,4.5322,4.5362,4.5371,4.538,4.5388,4.5122,4.5373,4.5373,4.5372,4.5372,4.5371,0,4.4567,4.4603,4.469,4.478,4.4853,4.4821,4.4891,4.4954,4.5051,4.511,4.5186,4.5301,4.5393,4.5432,4.5521,4.5583,4.5572,4.5606,4.56,4.5608,4.5416,4.5383,4.5612,4.5612,4.5612,4.5612,4.5612,4.5612,4.4705,4.4838,4.4848,4.5004,4.5039,4.5147,4.5188,4.5243,4.5289,4.5419,4.5495,4.5519,4.5569,4.5661,4.5744,4.5752,4.5786,4.5824,4.5827,4.5647,4.5622,4.5599,4.5567,4.5832,4.5832,4.6012,4.6013,4.6014]},{"header":{"parameterUnit":"m.s-1","parameterCategory":1,"la1":30.2991,"la2":30.254,"lo1":-89.0895,"lo2":-89.0444,"dy":0.0017,"dx":0.0017,"nx":28,"ny":28,"refTime":"2025-03-10T21:00:00:Z","depth":0,"parameterNumber":3,"parameterNumberName":"V-component_of_WINDS"},"data":[0,0,0,0,0,0,0,0,0,0,0,0,0,0,0,0,0,0,0,0,0,0,0,0,0,0,0,0,0,0,0,0,0,0,0,0,0,0,0,0,0,0,0,0,0,0,0,0,0,0,0,0,0,0,0,0,0,0,1.8826,1.8825,0,1.8715,1.8714,1.8712,1.8599,1.8598,1.8596,1.8595,1.8478,1.8476,1.8474,0,0,0,0,0,0,0,0,0,0,0,0,0,1.8938,1.8936,1.8826,1.8825,1.8824,1.8715,1.8713,1.8712,1.86,1.8598,1.8596,1.8594,1.8478,1.8476,1.8474,0,0,0,0,0,0,0,0,0,0,0,0,0,1.8864,1.8936,1.8827,1.8754,1.8747,1.8715,1.8713,1.8711,1.86,1.8598,1.8595,1.8593,1.8479,1.8477,1.8474,1.8504,0,0,1.8466,1.8465,0,0,0,0,0,0,0,0,1.8869,1.886,1.8766,1.8759,1.8751,1.8669,1.871,1.8642,1.8601,1.8656,1.8595,1.8592,1.8543,1.8535,1.8519,1.8498,1.8493,1.8466,1.8464,1.8463,1.8463,0,0,0,0,0,0,0,1.8874,1.8864,1.8782,1.8765,1.8756,1.8726,1.8713,1.8696,1.8613,1.8651,1.8642,1.8631,1.8538,1.8522,1.8515,1.8491,1.8466,1.8464,1.8462,1.8461,1.8487,1.8489,0,0,0,0,0,0,1.889,1.8869,1.8786,1.8779,1.8805,1.8726,1.8712,1.8697,1.8613,1.8598,1.8633,1.8626,1.8527,1.8519,1.8511,1.8538,1.8463,1.8461,1.8459,1.8484,1.8487,1.8489,0,0,0,0,0,0,1.8893,1.8884,1.879,1.8822,1.8808,1.8727,1.8711,1.8696,1.868,1.86,1.8584,1.8632,1.8525,1.8514,1.8506,1.8533,1.846,1.8457,1.8482,1.8485,1.8488,1.8595,0,0,0,0,0,0,1.8897,1.8886,1.8897,1.8823,1.8806,1.8789,1.8713,1.8696,1.8676,1.8666,1.8594,1.858,1.8522,1.851,1.8503,1.8528,1.8455,1.8479,1.8483,1.8487,1.8589,1.8602,1.8613,0,0,0,0,0,1.8901,1.8932,1.8898,1.8889,1.8819,1.8791,1.8781,1.8715,1.8679,1.8689,1.8637,1.8582,1.8531,1.8511,1.8502,1.8526,1.8477,1.8482,1.8487,1.8584,1.8599,1.8613,0,0,0,0,0,0,1.9011,1.8921,1.8883,1.889,1.8849,1.8772,1.8783,1.8734,1.8701,1.8693,1.8611,1.8596,1.8596,1.856,1.8539,1.8549,1.8496,1.85,1.8573,1.8587,1.8599,1.8607,1.8453,0,0,0,0,0,1.9036,1.9021,1.8943,1.8957,1.8938,1.8864,1.8849,1.8802,1.8755,1.8737,1.8685,1.8641,1.8614,1.8599,1.857,1.8583,1.8565,1.8595,1.8607,1.8617,1.8621,1.8623,1.8635,1.8506,1.8506,1.8506,0,0,1.9087,1.9036,1.9032,1.8978,1.894,1.8925,1.885,1.8838,1.8826,1.8735,1.8723,1.8684,1.8629,1.8631,1.8629,1.8601,1.8653,1.8624,1.8633,1.863,1.863,1.8642,1.8653,1.8509,1.8509,1.8508,0,0,1.9174,1.9134,1.9141,1.9105,1.9049,1.8999,1.9001,1.8931,1.8901,1.8888,1.8819,1.8802,1.8759,1.8723,1.8698,1.8769,1.8717,1.8762,1.8824,1.8827,1.8838,1.8846,1.887,1.888,1.8766,1.8766,1.8767,0,1.9245,1.9221,1.915,1.9142,1.9119,1.9037,1.9042,1.901,1.8947,1.8933,1.8902,1.8845,1.8802,1.8794,1.8811,1.8794,1.8792,1.877,1.8842,1.885,1.8857,1.8879,1.8888,1.8772,1.8771,1.8771,1.877,0,1.931,1.9294,1.9306,1.9248,1.9227,1.9226,1.9153,1.914,1.9094,1.9047,1.9034,1.898,1.8938,1.8933,1.8888,1.8917,1.8901,1.8858,1.8803,1.8876,1.8895,1.8903,1.878,1.8778,1.8777,1.8775,0,0,1.9462,1.9365,1.9371,1.9343,1.9274,1.926,1.9254,1.9214,1.9203,1.9162,1.9154,1.9119,1.9077,1.905,1.9,1.9003,1.906,1.8958,1.8955,1.8978,1.9087,1.912,1.9131,1.9025,1.9027,1.9028,1.9091,0,1.9536,1.9522,1.9457,1.9461,1.9445,1.9365,1.9359,1.9316,1.9272,1.925,1.92,1.9176,1.9125,1.9107,1.9107,1.9054,1.9081,1.9048,1.9015,1.9015,1.9031,1.9141,1.9176,1.9239,1.9099,1.91,1.9101,0,1.962,1.9585,1.9588,1.9519,1.9509,1.9506,1.9463,1.9444,1.9392,1.9359,1.9328,1.9272,1.9259,1.9209,1.9189,1.9168,1.915,1.9122,1.9123,1.9117,1.9062,1.9137,1.9257,1.9267,1.9112,1.9111,1.911,0,1.973,1.9683,1.9678,1.9657,1.9576,1.9575,1.9541,1.9488,1.9467,1.9429,1.9414,1.9375,1.9354,1.9324,1.9258,1.9227,1.9245,1.9189,1.9216,1.9217,1.9222,1.9223,1.9341,1.9213,1.9213,1.9213,1.9213,0,1.9818,1.9823,1.9726,1.9723,1.9725,1.965,1.9654,1.9612,1.9564,1.955,1.9479,1.9467,1.9381,1.9358,1.9306,1.9297,1.9288,1.926,1.9246,1.9266,1.9269,1.9253,1.9246,1.9215,1.9215,1.9214,1.9214,0,1.9941,1.9877,1.9866,1.979,1.9771,1.9776,1.971,1.9703,1.9654,1.9637,1.9629,1.9552,1.9522,1.9453,1.9404,1.9369,1.9372,1.9347,1.939,1.9381,1.9411,1.9409,1.9522,1.9532,1.94,1.9401,1.9402,0,2.0001,2.0003,1.9927,1.9913,1.9882,1.9861,1.9839,1.9765,1.9746,1.9686,1.9686,1.965,1.9618,1.9573,1.9511,1.9473,1.9446,1.9488,1.944,1.9459,1.9445,1.9446,1.9444,1.9499,1.9501,1.9502,1.9504,0,2.0115,2.0082,2.0055,2.0016,1.9993,1.9959,1.992,1.9913,1.9829,1.981,1.9779,1.9754,1.9703,1.9668,1.9621,1.9583,1.9529,1.9519,1.9523,1.9543,1.9568,1.9553,1.9418,1.9517,1.9516,1.9515,1.9514,1.9513,2.0207,2.0204,2.015,2.0121,2.0085,2.005,2.0039,1.9989,1.9962,1.9917,1.9874,1.9847,1.9792,1.9723,1.9689,1.9665,1.9638,1.9644,1.9645,1.9648,1.9656,1.9572,1.9656,1.9656,1.9655,1.9655,1.9655,0,2.0315,2.0277,2.0251,2.02,2.0177,2.0129,2.0083,2.0067,2.0044,1.9999,1.9968,1.9931,1.9896,1.9832,1.9791,1.9784,1.9758,1.9776,1.9775,1.9767,1.9683,1.9683,1.9797,1.9797,1.9797,1.9797,1.9797,1.9797,2.0369,2.0361,2.0322,2.0295,2.0255,2.0229,2.0207,2.0173,2.0137,2.0099,2.007,2.0029,1.9975,1.993,1.9895,1.9876,1.9864,1.989,1.9864,1.9786,1.9773,1.976,1.976,1.9888,1.9888,1.9949,1.9949,1.995]}]]